TimeEST,TemperatureF,Dew PointF,Humidity,Sea Level PressureIn,VisibilityMPH,Wind Direction,Wind SpeedMPH,Gust SpeedMPH,PrecipitationIn,Events,Conditions,WindDirDegrees,DateUTC
12:16 AM,29.7,29.8,100,29.83,5.0,NW,10.4,18.4,N/A,Snow,Light Snow,310,2013-03-01 05:16:00
12:35 AM,29.5,27.3,92,29.84,10.0,NW,9.2,-,N/A,,Overcast,320,2013-03-01 05:35:00
12:56 AM,29.3,26.6,90,29.84,10.0,NW,11.5,-,N/A,,Overcast,320,2013-03-01 05:56:00
1:16 AM,29.5,26.6,89,29.84,10.0,NW,9.2,18.4,N/A,Rain,Freezing Rain,310,2013-03-01 06:16:00
1:35 AM,29.3,26.4,89,29.85,10.0,NW,10.4,-,N/A,,Overcast,320,2013-03-01 06:35:00
1:56 AM,29.3,27.9,94,29.85,3.0,NW,6.9,-,N/A,Snow,Light Snow,310,2013-03-01 06:56:00
2:16 AM,29.3,29.3,100,29.85,7.0,NW,9.2,-,N/A,,Overcast,320,2013-03-01 07:16:00
2:35 AM,29.3,27.3,92,29.85,10.0,NW,8.1,-,N/A,,Overcast,320,2013-03-01 07:35:00
2:56 AM,29.3,28.2,96,29.85,7.0,NW,6.9,-,N/A,Snow,Snow,310,2013-03-01 07:56:00
3:16 AM,29.3,27.9,94,29.85,7.0,NW,5.8,-,N/A,Snow,Light Snow,310,2013-03-01 08:16:00
3:35 AM,29.1,28.2,96,29.85,4.0,NW,9.2,18.4,N/A,Snow,Light Snow,320,2013-03-01 08:35:00
3:56 AM,28.9,26.8,92,29.85,7.0,NNW,10.4,-,N/A,,Overcast,330,2013-03-01 08:56:00
4:16 AM,28.8,26.6,92,29.85,7.0,NW,10.4,-,N/A,Snow,Light Snow,320,2013-03-01 09:16:00
4:35 AM,28.6,26.1,90,29.85,7.0,NNW,9.2,-,N/A,Snow,Light Snow,340,2013-03-01 09:35:00
4:56 AM,28.4,25.7,90,29.86,10.0,NNW,8.1,-,N/A,,Overcast,330,2013-03-01 09:56:00
5:16 AM,28.4,24.4,85,29.87,10.0,North,12.7,18.4,N/A,,Overcast,350,2013-03-01 10:16:00
5:35 AM,27.9,22.8,81,29.87,10.0,NNW,6.9,-,N/A,,Overcast,340,2013-03-01 10:35:00
5:56 AM,27.5,21.9,80,29.87,10.0,NNW,11.5,-,N/A,,Freezing Rain,330,2013-03-01 10:56:00
6:16 AM,27.1,20.8,77,29.87,10.0,NNW,11.5,18.4,N/A,,Overcast,330,2013-03-01 11:16:00
6:33 AM,27.0,19.9,75,29.88,10.0,NNW,9.2,18.4,N/A,,Overcast,330,2013-03-01 11:33:00
6:52 AM,26.6,20.7,78,29.89,10.0,NNW,8.1,11.5,N/A,,Overcast,330,2013-03-01 11:52:00
7:08 AM,26.6,21.0,79,29.89,10.0,NNW,6.9,-,N/A,,Overcast,330,2013-03-01 12:08:00
7:35 AM,26.6,21.2,80,29.89,10.0,NW,6.9,-,N/A,,Overcast,320,2013-03-01 12:35:00
7:56 AM,26.6,21.2,80,29.90,7.0,NW,6.9,-,N/A,,Overcast,320,2013-03-01 12:56:00
8:16 AM,26.2,20.3,78,29.91,10.0,NW,10.4,-,N/A,Snow,Light Snow,320,2013-03-01 13:16:00
8:36 AM,26.2,21.2,81,29.92,5.0,NW,6.9,-,N/A,Snow,Light Snow,310,2013-03-01 13:36:00
8:55 AM,26.1,21.6,83,29.92,3.0,NW,5.8,-,N/A,Snow,Light Snow,320,2013-03-01 13:55:00
9:16 AM,26.2,22.3,85,29.92,1.8,NW,4.6,-,N/A,Snow,Light Snow,320,2013-03-01 14:16:00
9:36 AM,26.4,22.6,86,29.93,1.8,NW,8.1,-,N/A,Snow,Light Snow,320,2013-03-01 14:36:00
9:55 AM,26.6,22.1,83,29.93,2.5,NW,5.8,-,N/A,Snow,Light Snow,320,2013-03-01 14:55:00
10:16 AM,26.6,22.1,83,29.93,1.8,NNW,8.1,-,N/A,Snow,Light Snow,330,2013-03-01 15:16:00
10:36 AM,26.6,21.2,80,29.94,4.0,NW,9.2,-,N/A,Snow,Light Snow,320,2013-03-01 15:36:00
10:55 AM,26.4,21.4,81,29.94,4.0,NW,8.1,-,N/A,Snow,Light Snow,320,2013-03-01 15:55:00
11:16 AM,26.2,22.3,85,29.94,1.8,NW,6.9,-,N/A,Snow,Light Snow,320,2013-03-01 16:16:00
11:35 AM,26.6,21.2,80,29.95,7.0,NW,6.9,-,N/A,,Overcast,320,2013-03-01 16:35:00
11:56 AM,26.6,21.4,81,29.95,5.0,NW,9.2,-,N/A,,Haze,320,2013-03-01 16:56:00
12:16 PM,27.0,21.6,80,29.95,7.0,NNW,8.1,-,N/A,,Overcast,330,2013-03-01 17:16:00
12:36 PM,27.3,21.7,80,29.95,7.0,NW,4.6,-,N/A,Snow,Light Snow,310,2013-03-01 17:36:00
12:55 PM,27.7,21.2,77,29.94,10.0,NNW,10.4,-,N/A,,Overcast,330,2013-03-01 17:55:00
1:16 PM,28.0,20.3,73,29.94,10.0,NW,10.4,16.1,N/A,,Overcast,310,2013-03-01 18:16:00
1:36 PM,28.2,21.2,75,29.94,10.0,NW,6.9,-,N/A,,Overcast,320,2013-03-01 18:36:00
1:55 PM,28.2,21.4,76,29.93,10.0,NW,6.9,-,N/A,,Overcast,310,2013-03-01 18:55:00
2:16 PM,28.0,21.2,76,29.93,10.0,NW,8.1,-,N/A,,Overcast,320,2013-03-01 19:16:00
2:36 PM,28.6,21.4,74,29.92,10.0,NW,6.9,-,N/A,Snow,Light Snow,310,2013-03-01 19:36:00
2:48 PM,28.8,21.7,75,29.93,10.0,North,8.1,-,N/A,,Overcast,350,2013-03-01 19:48:00
3:16 PM,28.9,21.9,75,29.93,10.0,NNW,9.2,-,N/A,,Overcast,340,2013-03-01 20:16:00
3:36 PM,29.1,21.6,73,29.93,10.0,NW,10.4,16.1,N/A,,Overcast,320,2013-03-01 20:36:00
3:55 PM,28.4,21.2,74,29.93,10.0,NNW,8.1,-,N/A,,Overcast,330,2013-03-01 20:55:00
4:16 PM,28.4,21.0,74,29.94,10.0,NW,9.2,-,N/A,,Overcast,310,2013-03-01 21:16:00
4:36 PM,28.0,19.8,71,29.94,10.0,NW,9.2,-,N/A,,Overcast,310,2013-03-01 21:36:00
4:55 PM,27.5,21.0,77,29.94,10.0,NW,8.1,-,N/A,,Overcast,320,2013-03-01 21:55:00
5:16 PM,27.3,21.7,80,29.94,10.0,NW,4.6,-,N/A,,Overcast,320,2013-03-01 22:16:00
5:36 PM,27.0,21.9,81,29.95,5.0,NW,6.9,-,N/A,Snow,Light Snow,320,2013-03-01 22:36:00
5:55 PM,26.6,21.6,81,29.95,10.0,NNW,6.9,-,N/A,,Overcast,330,2013-03-01 22:55:00
6:16 PM,26.6,21.4,81,29.95,10.0,NW,8.1,-,N/A,,Overcast,320,2013-03-01 23:16:00
6:35 PM,26.4,21.9,83,29.96,10.0,NNW,5.8,-,N/A,,Overcast,330,2013-03-01 23:35:00
6:56 PM,26.4,21.7,82,29.96,10.0,NNW,5.8,-,N/A,,Overcast,340,2013-03-01 23:56:00
7:16 PM,26.2,21.9,84,29.96,10.0,NW,6.9,-,N/A,,Overcast,320,2013-03-02 00:16:00
7:36 PM,26.2,22.1,84,29.96,10.0,NNW,5.8,-,N/A,,Overcast,330,2013-03-02 00:36:00
7:55 PM,26.2,22.1,84,29.97,10.0,NNW,10.4,-,N/A,,Overcast,330,2013-03-02 00:55:00
8:16 PM,26.2,21.9,84,29.97,10.0,North,6.9,-,N/A,,Overcast,350,2013-03-02 01:16:00
8:36 PM,26.1,21.2,82,29.97,10.0,NNW,6.9,-,N/A,,Overcast,340,2013-03-02 01:36:00
8:55 PM,25.9,21.7,84,29.97,10.0,NNW,6.9,-,N/A,,Overcast,340,2013-03-02 01:55:00
9:16 PM,25.7,22.1,86,29.98,5.0,NW,4.6,-,N/A,Snow,Light Snow,310,2013-03-02 02:16:00
9:35 PM,25.7,23.0,89,29.98,4.0,NW,8.1,-,N/A,Snow,Light Snow,320,2013-03-02 02:35:00
9:56 PM,25.7,22.6,88,29.97,7.0,NW,8.1,-,N/A,Snow,Light Snow,320,2013-03-02 02:56:00
10:16 PM,25.5,21.9,86,29.97,10.0,NW,4.6,-,N/A,,Overcast,320,2013-03-02 03:16:00
10:35 PM,25.7,22.1,86,29.97,10.0,NW,8.1,-,N/A,,Overcast,320,2013-03-02 03:35:00
10:56 PM,25.7,22.1,86,29.97,10.0,NW,4.6,-,N/A,,Overcast,310,2013-03-02 03:56:00
11:16 PM,25.5,22.1,87,29.97,10.0,NNW,8.1,-,N/A,,Overcast,330,2013-03-02 04:16:00
11:35 PM,25.5,22.1,87,29.97,10.0,NW,6.9,-,N/A,,Overcast,320,2013-03-02 04:35:00
11:56 PM,25.5,21.6,85,29.96,10.0,NNW,8.1,-,N/A,,Overcast,330,2013-03-02 04:56:00